Regional Weather Roundup
Issued by NWS

Home | Current Version | Previous Version | Graphics & Text | Print | Product List | Glossary On
Versions: 1 2 3 4 5 6 7 8 9 10 11 12 13 14 15 16 17 18 19 20 21 22 23 24 25 26 27 28 29 30 31 32 33 34 35 36 37 38 39 40 41 42 43 44 45 46 47 48 49 50
000
ASUS44 KMEG 191610
RWRTN
TENNESSEE HOURLY STATE WEATHER ROUNDUP
NATIONAL WEATHER SERVICE MEMPHIS TN
1000 AM CST MON FEB 19 2018

TNZ002-004-019-021-049-052-054-088>092-191700-
WEST TENNESSEE

CITY           SKY/WX    TMP DP  RH WIND       PRES   REMARKS
MEMPHIS INTL   CLOUDY    68  61  78 S17       30.10S
NWS MEMPHIS      N/A     67 N/A N/A MISG        N/A
JACKSON        FAIR      70  60  70 S18       30.12R
DYERSBURG      CLOUDY    66  61  84 S14G21    30.09S
COVINGTON      CLOUDY    66  61  82 S18G24    30.10S
UNION CITY     CLOUDY    63  59  88 S10       30.08S
BOLIVAR        SUNNY     66  57  72 S13       30.13S
PARIS          CLOUDY    66  59  77 S13       30.09S
HUNTINGDON     PTSUNNY   68  59  73 S17G24    30.09F
LEXINGTON      CLOUDY    66  59  77 S18G32    30.15R
SELMER         CLOUDY    63  59  88 S9G20     30.16S
SAVANNAH       CLOUDY    64  61  88 S13       30.18S
$$

TNZ008-025-027-028-033-062-065-066-191700-
NORTH MIDDLE TENNESSEE

CITY           SKY/WX    TMP DP  RH WIND       PRES   REMARKS
NASHVILLE      PTSUNNY   69  59  70 S24G31    30.19S
PORTLAND       MOSUNNY   68  59  73 S18G26    30.15F
CLARKSVILLE    FAIR      70  54  56 S17G33    30.12S
SMYRNA         PTSUNNY   69  60  73 S10G21    30.20S
COOKEVILLE     CLOUDY    66  59  77 S12G21    30.23S
GALLATIN       PTSUNNY   70  61  73 S15G23    30.19F
CROSSVILLE     CLOUDY    59  56  89 S13G22    30.28S
$$

TNZ061-075-076-078-094-096-097-191700-
SOUTH MIDDLE TENNESSEE

CITY           SKY/WX    TMP DP  RH WIND       PRES   REMARKS
FAYETTEVILLE   CLOUDY    64  61  88 S16       30.24S
TULLAHOMA      CLOUDY    66  59  77 S10G21    30.24S
WINCHESTER     PTSUNNY   66  59  77 S23       30.25S
MCMINNVILLE    CLOUDY    68  57  68 SW15G24   30.23S
COLUMBIA       CLOUDY    68  66  94 S14       30.18S
SHELBYVILLE    CLOUDY    66  61  82 S17G24    30.22S
$$

TNZ017-018-042-046-047-191700-
NORTHEAST TENNESSEE

CITY           SKY/WX    TMP DP  RH WIND       PRES   REMARKS
TRI CITIES     PTSUNNY   58  55  90 E3        30.32S
ELIZABETHTON   CLOUDY    59  52  77 E6        30.33F
$$

TNZ012-013-036-069-073-074-191700-
CENTRAL EAST TENNESSEE

CITY           SKY/WX    TMP DP  RH WIND       PRES   REMARKS
KNOXVILLE      PTSUNNY   61  52  72 CALM      30.30R
OAK RIDGE      CLOUDY    58  51  78 CALM      30.31F
DOWNTOWN KNOXV CLOUDY    61  52  72 CALM      30.31S
GATLINBURG     CLOUDY    57  52  82 CALM      30.30S
JACKSBORO      CLOUDY    55  52  88 CALM      30.33S
$$

TNZ083-085-099-191700-
SOUTHEAST TENNESSEE

CITY           SKY/WX    TMP DP  RH WIND       PRES   REMARKS
CHATTANOOGA    CLOUDY    62  56  80 S7        30.31S FOG
$$

SKY/WX REPORTED AS FAIR MEANS FEW OR NO CLOUDS BELOW
12 THOUSAND FEET.




USA.gov is the U.S. government's official web portal to all federal, state and local government web resources and services.